SCP
0 0 0 0 0 0 0 0 0 0 0 0 0 -0 0 0 0 0 0 0 0 0 0 0 0 0 0 0 0 0 0 0 0 0 0 0 0 0 0 0 0 0 0 0 0 0 0 0 0 0 0 0 0 0
0 0 0 0 0 0 0 0 0 0 0 -0 -0 -0 -0 -0 0 0 0 0 0 0 0 0 0 0 0 0 0 0 0 0 0 0 0 0 0 0 0 0 0 0 0 0 -0 0 0 0 0 0 0 0 0 0
0 0 0 0 0 0 0 0 0 0 0 0 -0 -0 -0 -0 0 0 0 0 0 0 0 0 0 0 0 0 0 0 0 0 0 0 0 0 0 0 0 0 0 0 0 0 0 0 0 0 0 0 0 0 0 0
0 0 0 0 0 0 0 0 0 0 0 -0 -0 -0 0 0 0 0 0 0 0 0 0 0 0 0 0 0 0 0 0 0 0 0 0 0 0 0 0 0 0 0 0 0 0 0 0 0 0 0 0 0 0 0
0 0 0 0 0 0 0 0 0 0 0 -0 0 0 0 0 0 0 0 0 0 0 0 0 0 0 0 0 0 0 0 0 0 0 0 0 0 0 0 0 0 0 0 0 0 0 0 0 0 0 0 0 0 0
0 0 0 0 0 0 0 0 0 0 0 0 -0 0 0 0 0 0 0 0 0 0 0 0 0 0 0 0 0 0 0 0 0 0 0 0 0 0 0 0 -0 -0 -0 0 0 0 0 0 0 0 0 0 0 0
0 0 0 0 0 0 0 0 0 0 0 0 0 0 0 0 0 0 0 0 0 0 0 0 0 0 0 0 0 0 0 0 0 0 -0 -0 0 0 0 -0 -0 -0 -0 -0 0 0 0 0 0 0 0 0 0 0
0 -0 0 0 0 0 0 0 0 0 0 0 0 0 0 0 0 0 0 0 0 0 0 0 0 0 0 0 0 0 0 0 0 0 0 0 0 -0 -0 -0 -0 -0 -0 -0 0 0 0 0 0 0 0 0 0 0
-0 -0 0 0 0 0 0 0 0 0 0 0 0 0 0 0 0 0 0 0 0 0 0 0 0 0 0 0 0 0 0 0 0 0 0 0 0 -0 0 0 0 -0 -0 -0 -0 0 0 0 0 0 0 0 0 0
-0 -0 0 0 0 0 0 0 0 0 0 0 0 0 0 0 0 0 0 0 0 0 0 0 0 0 0 0 0 0 0 0 0 0 0 0 0 0 0 0 0 -0 0 -0 -0 -0 0 0 0 0 0 0 0 0
-0 -0 -0 -0 0 0 0 0 0 0 0 0 0 0 0 0 0 0 0 0 0 0 0 0 0 0 0 0 0 0 0 0 0 0 0 0 0 0 0 -0 0 -0 -0 0 0 0 0 0 0 0 0 0 0 0
-0 -0 -0 -0 -0 0 0 0 0 0 0 0 0 0 0 0 0 0 0 0 0 0 0 0 0 0 0 0 0 0 0 0 0 0 0 0 0 0 0 -0 -0 -0 -0 0 0 0 0 -0 0 0 0 0 0 0
-0 -0 -0 -0 -0 0 0 0 0 0 0 0 0 0 0 0 0 0 0 0 0 0 0 0 0 0 0 0 0 0 0 0 0 0 0 0 0 0 0 0 -0 0 -0 -0 -0 -0 -0 -0 0 -0 0 0 0 0
-0 -0 -0 -0 0 0 0 0 0 0 0 0 0 0 0 0 0 0 0 0 0 0 0 0 0 0 0 0 0 0 0 0 0 0 0 0 0 0 0 0 -0 -0 -0 -0 -0 -0 -0 -0 -0 -0 -0 0 0 0
-0 -0 -0 0 0 0 0 0 0 0 0 0 0 0 0 0 0 0 0 0 0 0 0 0 0 0 0 0 0 0 0 0 0 0 0 0 0 0 0 0 0 -0 0 -0 -0 -0 -0 -0 -0 -0 -0 0 0 0
-0 -0 0 0 0 0 0 0 0 0 0 0 0 0 0 0 0 0 0 0 0 0 0 0 0 0 0 0 0 0 0 0 0 0 0 0 0 0 0 0 0 -0 -0 -0 -0 -0 -0 -0 -0 -0 -0 0 0 0
-0 0 -0 -0 0 0 0 0 0 0 0 0 0 0 0 0 0 0 0 0 0 0 0 0 0 0 0 0 0 0 0 0 0 0 0 0 0 0 0 0 0 0 0 -0 -0 -0 -0 -0 -0 -0 -0 -0 0 0
0 0 -0 0 -0 0 0 0 0 0 0 0 0 0 0 0 0 0 0 0 0 0 0 0 0 0 0 0 0 0 0 0 0 0 0 0 0 0 0 0 0 0 0 0 0 0 -0 -0 -0 -0 -0 -0 -0 0
-0 -0 -0 -0 0 0 0 0 0 0 0 0 0 0 0 0 0 0 0 0 0 0 0 0 0 0 0 0 0 0 0 0 0 0 0 0 0 0 0 0 0 0 0 0 0 0 0 -0 -0 -0 -0 -0 -0 -0
-0 -0 -0 0 -0 0 0 0 0 0 0 0 0 0 0 0 0 0 0 0 0 0 0 0 0 0 0 0 0 0 0 0 0 0 0 0 0 0 0 0 0 0 0 0 0 0 0 0 0 -0 0 -0 -0 -0
0 0 0 0 0 0 0 0 0 0 0 0 0 0 0 0 0 0 0 0 0 0 0 0 0 0 0 0 0 0 0 0 0 0 0 0 0 0 0 0 0 0 0 0 0 0 0 0 0 0 0 0 -0 -0
0 0 0 0 0 0 -0 0 0 0 0 0 0 0 0 0 0 0 0 0 0 0 0 0 0 0 0 0 0 0 0 0 0 0 0 0 0 0 0 0 0 0 0 0 0 0 0 0 0 0 0 0 -0 0
-0 0 0 -0 0 0 0 0 0 0 0 0 0 0 0 0 0 0 0 0 0 0 0 0 0 0 0 0 0 0 0 0 0 0 0 0 0 0 0 0 0 0 0 0 0 0 0 0 0 0 0 0 0 0
0 -0 -0 0 0 0 -0 0 0 0 0 0 0 0 0 0 0 0 0 0 0 0 0 0 0 0 0 0 0 0 0 0 0 0 0 0 0 0 0 0 0 0 0 0 0 0 0 0 0 0 0 0 0 0
0 0 0 -0 0 0 0 0 0 0 0 0 0 0 0 0 0 0 0 0 0 0 0 0 0 0 0 0 0 0 0 0 0 0 0 0 0 0 0 0 0 0 0 0 0 0 0 0 0 0 0 0 0 0
0 0 0 0 0 0 0 0 0 0 0 0 0 0 0 0 0 0 0 0 0 0 0 0 0 0 0 0 0 0 0 0 0 0 0 0 0 0 0 0 0 0 0 0 0 0 0 0 0 0 0 0 0 0
0 0 0 -0 -0 0 0 0 0 0 0 0 0 0 0 0 0 0 0 0 0 0 0 0 0 0 0 0 0 0 0 0 0 0 0 0 0 0 0 0 0 0 0 0 0 0 0 0 0 0 0 0 0 0
-0 -0 0 0 0 0 0 0 0 0 0 0 0 0 0 0 0 0 0 0 0 0 0 0 0 0 0 0 0 0 0 0 0 0 0 0 0 0 0 0 0 0 0 -0 -0 -0 -0 -0 -0 0 0 0 0 0
-0 -0 -0 -0 0 0 0 0 0 0 0 0 0 0 0 0 0 0 0 0 0 0 0 0 0 0 0 0 0 0 0 0 0 0 0 0 0 0 0 0 0 -0 -0 -0 0 -0 0 0 -0 0 -0 -0 -0 -0
-0 0 0 0 0 0 0 0 0 0 0 0 0 0 0 0 0 0 0 0 0 0 0 0 0 0 0 0 0 0 0 0 0 0 0 0 0 0 0 0 0 -0 -0 0 0 0 0 0 0 0 0 -0 -0 -0
0 0 0 0 0 0 0 0 0 0 0 0 0 0 0 0 0 0 0 0 0 0 0 0 0 0 0 0 0 0 0 0 0 0 0 0 0 0 0 0 0 0 0 0 0 0 0 0 0 0 0 0 0 -0
0 0 0 0 0 0 0 0 0 0 0 0 0 0 0 0 0 0 0 0 0 0 0 0 0 0 0 0 0 0 0 0 0 0 0 0 0 0 0 0 0 0 0 0 0 0 0 0 0 0 0 0 -0 -0
0 0 0 0 0 0 0 0 0 0 0 0 0 0 0 0 0 0 0 0 0 0 0 0 0 0 0 0 0 0 0 0 0 0 0 0 0 0 0 0 0 0 0 0 0 0 0 0 0 0 0 0 0 0
Wind_Speed_500mb
33 39 44 45 41 37 42 48 49 43 32 27 22 19 10 9 13 12 9 6 2 6 14 13 18 12 11 8 4 16 11 3 6 5 5 6 5 6 3 6 12 13 12 14 17 11 17 46 9 9 11 17 13 23
34 39 43 43 38 37 43 49 44 35 24 23 23 19 13 20 15 10 5 3 4 10 5 14 13 12 12 18 14 7 9 9 6 5 4 6 5 7 15 7 6 3 6 4 4 2 32 15 37 27 20 17 26 32
34 38 42 41 34 35 40 46 37 26 20 18 17 18 11 22 16 11 9 5 7 7 11 11 12 14 18 9 7 5 8 11 8 13 7 4 5 7 8 6 7 4 12 4 7 8 26 20 32 32 29 24 25 30
32 37 41 39 32 33 38 42 31 21 17 14 16 13 11 10 12 13 12 13 9 2 4 6 19 15 23 17 8 7 14 12 10 8 5 5 6 18 7 6 5 9 16 12 7 17 33 34 40 41 35 28 28 27
31 36 39 37 31 29 35 38 26 17 16 13 11 13 9 8 9 3 5 10 10 1 4 7 10 9 17 23 19 21 17 9 6 6 7 8 8 10 9 7 8 27 12 10 6 35 19 27 48 36 39 37 30 32
30 34 37 36 28 26 29 34 28 16 14 12 10 6 6 7 13 9 5 5 15 8 6 4 9 5 14 19 20 19 21 24 14 9 7 9 9 17 6 7 42 51 50 46 17 46 23 31 31 34 34 35 32 26
30 33 35 34 28 24 24 30 29 19 16 14 11 10 11 12 9 6 5 14 15 7 4 7 5 6 7 15 14 12 21 17 12 6 11 9 8 16 4 6 41 50 49 49 59 54 41 49 37 37 35 32 27 22
30 33 34 33 30 24 23 26 28 22 19 16 14 14 14 17 12 6 13 17 10 6 5 5 3 1 1 3 6 13 10 11 18 6 8 10 14 10 6 36 34 48 43 47 56 58 51 38 40 52 43 35 26 21
29 32 32 33 30 24 22 24 25 20 21 19 16 16 11 4 5 12 18 10 9 6 5 2 3 5 2 1 2 6 9 6 10 7 8 8 7 8 13 27 35 36 36 41 43 44 47 47 47 53 46 44 38 31
28 31 29 29 25 24 25 23 20 19 22 18 12 4 5 7 21 9 4 5 3 4 5 6 5 3 4 7 4 5 3 2 3 6 9 8 4 9 18 20 16 28 33 39 46 49 47 49 50 51 49 44 40 27
29 30 27 24 22 23 27 22 17 19 19 13 7 5 15 18 4 2 2 2 1 5 8 8 10 5 4 3 4 2 4 1 3 3 5 5 5 8 22 24 16 21 24 31 36 41 45 44 45 44 47 46 45 42
29 29 27 25 24 24 26 26 19 19 18 17 14 14 9 6 3 3 2 2 4 4 5 4 3 7 5 4 4 5 3 4 3 6 3 2 6 9 20 24 13 12 17 21 28 34 39 44 46 50 50 49 47 45
31 29 27 28 26 25 21 27 22 20 24 14 4 4 3 2 7 4 6 6 7 8 4 5 7 5 5 5 3 3 3 6 8 1 1 5 7 6 14 19 21 12 8 14 22 28 30 32 44 52 48 44 46 52
30 29 30 28 23 14 17 27 21 15 11 4 3 10 1 4 5 6 6 8 12 16 20 14 3 4 6 5 3 2 4 6 3 1 2 2 3 3 9 11 16 17 9 8 10 19 25 30 32 33 38 41 42 45
26 28 27 15 8 16 25 24 14 10 6 4 3 4 7 9 14 15 17 17 18 18 14 2 4 6 3 4 3 4 6 3 1 1 3 5 13 8 8 12 14 13 8 10 7 12 18 23 29 34 37 32 31 39
25 22 13 22 23 21 20 13 8 8 6 6 8 7 10 8 9 8 12 15 13 16 6 3 2 2 4 2 3 3 1 2 2 4 6 15 8 6 12 14 15 10 9 6 6 7 11 17 23 26 26 30 29 23
26 20 30 28 19 16 15 7 5 7 6 6 10 18 24 25 19 17 16 15 14 5 4 5 6 5 2 3 1 5 5 2 3 4 8 3 6 13 16 15 7 9 11 7 7 9 12 9 17 18 17 18 28 29
34 34 28 20 12 14 8 9 5 7 9 12 10 14 16 22 23 19 21 17 9 3 9 3 2 3 4 10 9 7 6 4 9 8 2 2 6 11 16 14 8 3 4 4 7 6 11 7 12 16 20 20 23 28
32 18 15 11 8 6 4 6 8 7 11 14 20 25 19 17 17 20 22 18 11 7 4 2 7 7 8 7 22 22 6 6 6 6 6 12 13 12 14 18 9 8 8 4 4 11 14 5 10 15 17 17 18 25
18 12 5 7 8 4 4 6 8 9 8 8 14 15 13 12 18 17 14 8 5 3 5 6 5 7 13 27 24 18 5 2 4 8 11 14 18 16 14 15 9 12 16 8 2 9 10 7 11 15 14 14 16 22
8 7 8 4 4 7 6 6 8 9 11 8 11 15 7 8 8 10 13 20 7 7 8 2 9 13 12 22 24 15 15 4 8 10 8 14 16 17 16 14 9 6 13 10 3 7 6 9 14 15 13 17 23 21
9 12 6 4 4 5 8 10 8 12 8 10 10 12 5 5 8 10 12 10 6 4 2 6 1 15 22 25 20 13 11 14 15 6 11 13 11 14 25 28 22 16 14 6 8 5 3 8 17 13 11 17 21 23
10 5 4 5 5 5 5 5 4 4 5 10 11 4 4 4 8 10 4 3 2 5 5 6 13 13 20 25 17 7 17 18 13 3 7 14 10 14 14 15 14 10 4 6 5 6 1 5 13 5 9 13 14 19
9 5 5 5 7 5 4 2 3 5 5 6 6 5 4 6 12 6 2 3 4 0 6 10 14 20 21 22 19 9 9 11 7 4 13 7 7 4 12 14 15 16 14 12 7 13 10 5 3 9 9 13 15 17
5 7 5 6 5 3 3 2 1 1 2 3 4 4 2 6 3 4 3 5 10 6 7 12 15 20 21 23 20 16 14 7 4 34 18 16 8 10 22 24 17 10 16 14 17 9 13 12 5 7 12 16 17 16
2 8 10 6 5 5 3 3 4 4 4 4 3 3 2 2 2 2 1 6 6 7 10 13 14 13 14 17 15 19 12 14 23 13 12 11 17 13 13 10 10 11 13 12 8 7 10 9 12 13 11 12 12 14
3 5 7 10 5 5 4 2 3 5 4 5 2 3 1 3 1 2 1 9 11 12 14 13 13 14 12 15 18 17 17 24 21 1 19 11 3 8 11 13 14 18 18 15 13 10 10 7 13 14 13 10 13 13
9 6 8 9 9 9 4 4 5 6 5 6 4 4 2 2 2 3 3 11 15 13 13 13 18 19 22 25 26 24 19 14 21 20 9 19 20 15 13 14 17 20 19 19 17 16 13 11 12 10 7 11 10 9
8 9 11 8 8 10 12 12 8 11 9 15 6 5 4 6 8 6 10 14 16 17 14 13 16 21 26 26 22 21 17 12 5 5 7 11 8 9 10 5 16 9 15 16 13 12 11 16 12 12 11 12 15 12
8 18 9 7 7 8 7 16 8 15 21 19 10 8 9 11 11 12 14 15 15 14 10 9 12 14 17 21 23 22 18 17 15 15 10 9 8 10 12 12 13 13 16 15 14 13 13 14 13 11 12 12 11 10
6 13 7 9 8 9 12 14 14 17 20 19 15 9 11 12 14 6 6 9 12 12 8 7 7 12 16 18 18 16 17 19 18 17 12 9 12 13 14 11 12 12 12 12 11 9 7 5 4 9 7 7 8 8
12 17 10 6 4 5 10 10 12 11 13 12 10 13 14 13 12 11 14 11 6 4 6 8 8 12 15 17 20 20 19 21 21 26 27 29 29 25 19 12 12 11 9 7 7 8 7 7 7 7 7 7 7 7
7 9 9 6 5 9 12 12 8 4 7 9 11 17 14 9 3 8 11 17 11 6 6 8 9 10 12 14 18 19 21 22 21 19 17 17 17 16 16 16 14 12 11 10 10 9 9 9 7 7 8 7 7 7
Wind_Direction_500mb
349 350 349 351 354 355 356 354 351 356 5 15 26 41 78 105 108 96 102 48 328 274 306 306 318 301 298 301 300 306 317 320 306 311 311 334 300 329 327 91 143 164 206 205 216 234 249 324 195 135 100 55 20 22
348 348 347 352 354 355 356 355 356 6 20 27 46 40 101 107 105 101 125 189 233 250 305 351 3 338 339 333 307 300 297 287 337 312 330 308 324 332 335 41 15 186 274 273 216 264 286 5 64 75 61 44 12 20
346 347 346 352 353 353 359 357 360 11 15 33 53 56 112 114 97 71 40 42 45 313 310 8 359 8 8 342 325 288 282 331 312 330 304 315 336 326 355 34 295 329 344 298 275 233 329 27 31 38 26 18 14 30
345 346 346 351 351 354 1 0 2 14 19 40 56 78 81 104 104 73 47 31 35 27 329 4 8 23 25 39 26 318 278 312 313 337 345 347 344 357 340 297 335 332 322 303 259 339 347 351 3 8 8 15 20 33
344 343 345 349 349 354 3 2 2 14 20 27 46 65 69 6 340 329 18 14 31 351 302 281 314 14 24 27 32 41 43 24 27 48 16 19 357 340 327 309 5 1 351 357 333 331 312 302 336 357 4 2 0 1
342 342 345 347 347 347 358 0 360 3 1 359 22 32 52 28 352 341 349 293 342 336 322 306 291 287 324 336 339 4 35 37 52 51 24 0 359 357 345 23 359 2 4 10 339 339 330 336 342 353 353 353 351 342
340 343 344 345 346 338 340 352 355 354 340 329 329 324 335 350 340 326 314 312 320 319 280 289 283 265 302 230 330 3 34 41 52 54 22 346 340 6 5 7 356 358 359 1 7 13 0 4 351 359 1 351 348 345
339 343 340 343 343 333 330 335 343 346 342 326 309 305 306 316 320 297 307 316 306 307 266 275 265 239 336 325 323 344 353 19 31 37 2 358 337 354 29 351 357 2 360 9 10 22 21 22 18 14 19 20 22 17
339 340 339 344 348 346 334 334 337 339 340 330 316 308 304 296 317 307 311 304 297 254 280 249 284 356 170 156 27 27 24 38 358 19 19 344 342 40 337 342 358 4 9 3 13 16 23 24 23 29 36 30 27 14
337 335 337 348 356 353 346 342 342 340 339 325 321 315 278 302 315 332 7 348 295 268 248 248 251 287 222 179 145 121 81 61 29 7 336 33 324 321 353 354 4 8 10 13 14 13 15 21 26 29 32 33 32 28
333 329 334 339 338 340 346 347 342 340 339 334 313 276 303 316 344 348 308 281 231 258 215 241 219 282 225 297 116 161 144 80 89 3 344 333 305 355 4 6 4 19 31 35 35 33 34 32 26 29 32 29 28 25
327 324 329 325 317 313 320 339 328 329 324 312 294 301 313 347 316 283 332 255 225 300 234 235 273 234 221 216 207 179 124 192 108 158 108 286 282 337 358 359 3 6 20 36 41 43 40 34 36 36 34 31 28 24
321 324 324 317 313 310 299 324 320 320 322 323 330 317 331 315 22 64 322 299 311 291 265 287 301 187 172 196 125 186 173 68 137 116 236 256 326 340 351 354 353 329 344 16 28 33 34 34 33 32 30 30 30 33
320 325 321 316 309 300 301 317 313 310 316 309 321 324 2 295 244 212 241 267 290 273 311 308 182 213 177 179 155 162 84 175 126 68 268 258 307 350 6 355 348 342 309 326 1 23 25 25 23 20 20 21 26 29
325 329 331 336 316 298 305 307 290 278 278 264 227 260 231 263 270 276 284 290 313 304 316 220 162 203 154 149 64 128 164 92 210 189 247 296 310 297 341 355 352 338 289 258 300 342 359 9 15 12 6 5 11 26
333 336 331 321 312 304 309 306 247 258 246 228 236 251 246 272 286 282 284 293 316 325 302 281 224 160 90 348 197 105 50 197 184 230 276 312 324 275 317 328 347 355 333 284 284 289 320 345 349 356 0 4 7 5
335 333 319 314 312 303 308 248 248 239 245 232 247 255 258 276 266 273 276 287 309 310 344 313 308 10 124 246 120 181 201 177 170 302 323 350 334 327 320 309 309 341 353 4 9 11 359 354 11 8 11 2 7 11
328 324 312 303 296 308 286 207 242 249 250 248 255 281 268 273 282 295 310 300 311 62 306 286 160 238 357 3 357 342 306 322 342 316 267 215 332 326 345 337 241 253 338 358 15 354 3 29 30 18 20 14 9 14
325 331 314 285 277 297 239 223 220 263 253 274 277 287 284 289 301 310 294 275 268 271 236 353 38 5 62 322 290 313 287 2 39 37 347 334 328 327 350 339 263 215 217 217 352 358 5 90 45 32 28 26 26 18
327 319 308 292 280 237 241 232 223 254 261 273 286 295 296 303 318 340 360 360 323 147 89 79 239 184 174 235 300 300 260 312 324 339 352 10 359 352 348 345 315 226 215 214 135 18 7 74 54 31 26 37 34 26
308 309 313 283 267 223 253 246 247 256 284 277 290 328 326 344 2 22 4 353 53 40 68 207 277 280 282 293 300 264 230 210 288 303 339 356 1 357 356 347 327 258 185 153 87 37 25 64 41 21 41 51 35 32
304 313 292 266 253 250 252 237 252 293 278 303 327 343 20 16 17 7 354 35 48 28 45 144 278 322 322 332 324 250 197 265 267 286 356 6 34 63 70 65 66 106 115 99 312 250 148 70 27 34 58 45 44 55
323 294 248 231 249 251 259 290 280 311 309 324 339 21 17 11 1 3 74 58 39 26 124 351 334 331 341 346 356 211 225 262 249 266 37 43 65 102 76 59 54 56 52 1 54 148 1 61 39 88 80 61 64 57
310 233 227 226 222 269 294 262 289 329 335 351 357 329 338 341 354 34 55 348 348 108 348 356 360 358 354 351 349 324 278 262 256 25 28 329 147 67 65 54 49 47 52 42 39 149 148 226 151 145 81 81 63 49
280 214 203 231 218 248 257 266 2 315 281 275 284 254 14 356 357 11 3 350 11 1 14 5 357 359 355 350 340 323 307 289 234 298 275 246 196 115 81 53 30 30 41 47 62 102 95 97 84 111 80 65 49 45
167 205 186 199 172 209 207 247 218 237 238 252 261 37 31 345 301 10 349 347 346 351 356 351 340 346 351 349 346 340 304 285 306 302 290 206 129 88 352 44 102 49 38 53 74 95 110 117 122 121 112 83 51 61
275 227 214 214 207 203 228 213 232 240 255 240 211 134 189 279 260 124 53 354 348 320 313 326 342 354 15 23 2 345 308 300 301 193 121 92 266 93 69 100 66 56 50 48 60 110 98 103 109 114 109 67 98 74
240 230 206 188 203 219 227 211 215 223 231 205 168 220 244 279 76 119 16 10 13 16 11 36 79 63 46 28 19 21 33 64 118 119 123 116 90 58 100 104 73 63 59 60 62 87 98 113 120 112 114 111 97 72
226 216 196 213 199 211 217 211 224 213 203 184 199 182 156 127 119 100 75 67 59 54 60 90 81 49 40 40 48 51 70 95 56 34 122 116 96 78 33 21 325 130 62 57 63 86 100 119 105 104 101 97 94 92
236 197 207 202 201 222 225 206 227 227 205 199 183 141 131 128 119 116 95 84 82 79 87 101 82 53 56 59 54 49 62 57 56 66 73 106 117 95 83 47 87 89 68 81 80 110 110 113 99 90 99 86 76 71
240 191 222 223 239 224 237 237 221 198 195 201 202 174 147 141 127 149 142 103 77 72 105 106 86 76 65 61 54 47 40 31 42 61 81 125 141 132 113 68 88 104 87 108 99 109 129 129 97 114 103 89 68 61
209 205 203 225 232 251 163 171 180 193 195 188 188 169 157 154 194 210 192 166 127 132 127 109 91 86 69 47 30 32 62 81 82 89 88 88 95 107 111 102 104 107 106 120 93 90 101 101 110 101 90 68 63 57
237 238 219 206 174 197 192 172 183 179 202 203 200 197 185 170 133 216 205 193 190 197 156 136 131 108 78 46 43 68 82 88 91 93 98 99 96 97 100 102 104 101 101 105 107 100 90 89 91 93 79 57 47 27
Wind_Speed_850mb
33 39 44 45 41 37 42 48 49 43 32 27 22 19 10 9 13 12 9 6 2 6 14 13 18 12 11 8 4 16 11 3 6 5 5 6 5 6 3 6 12 13 12 14 17 11 17 46 9 9 11 17 13 23
34 39 43 43 38 37 43 49 44 35 24 23 23 19 13 20 15 10 5 3 4 10 5 14 13 12 12 18 14 7 9 9 6 5 4 6 5 7 15 7 6 3 6 4 4 2 32 15 37 27 20 17 26 32
34 38 42 41 34 35 40 46 37 26 20 18 17 18 11 22 16 11 9 5 7 7 11 11 12 14 18 9 7 5 8 11 8 13 7 4 5 7 8 6 7 4 12 4 7 8 26 20 32 32 29 24 25 30
32 37 41 39 32 33 38 42 31 21 17 14 16 13 11 10 12 13 12 13 9 2 4 6 19 15 23 17 8 7 14 12 10 8 5 5 6 18 7 6 5 9 16 12 7 17 33 34 40 41 35 28 28 27
31 36 39 37 31 29 35 38 26 17 16 13 11 13 9 8 9 3 5 10 10 1 4 7 10 9 17 23 19 21 17 9 6 6 7 8 8 10 9 7 8 27 12 10 6 35 19 27 48 36 39 37 30 32
30 34 37 36 28 26 29 34 28 16 14 12 10 6 6 7 13 9 5 5 15 8 6 4 9 5 14 19 20 19 21 24 14 9 7 9 9 17 6 7 42 51 50 46 17 46 23 31 31 34 34 35 32 26
30 33 35 34 28 24 24 30 29 19 16 14 11 10 11 12 9 6 5 14 15 7 4 7 5 6 7 15 14 12 21 17 12 6 11 9 8 16 4 6 41 50 49 49 59 54 41 49 37 37 35 32 27 22
30 33 34 33 30 24 23 26 28 22 19 16 14 14 14 17 12 6 13 17 10 6 5 5 3 1 1 3 6 13 10 11 18 6 8 10 14 10 6 36 34 48 43 47 56 58 51 38 40 52 43 35 26 21
29 32 32 33 30 24 22 24 25 20 21 19 16 16 11 4 5 12 18 10 9 6 5 2 3 5 2 1 2 6 9 6 10 7 8 8 7 8 13 27 35 36 36 41 43 44 47 47 47 53 46 44 38 31
28 31 29 29 25 24 25 23 20 19 22 18 12 4 5 7 21 9 4 5 3 4 5 6 5 3 4 7 4 5 3 2 3 6 9 8 4 9 18 20 16 28 33 39 46 49 47 49 50 51 49 44 40 27
29 30 27 24 22 23 27 22 17 19 19 13 7 5 15 18 4 2 2 2 1 5 8 8 10 5 4 3 4 2 4 1 3 3 5 5 5 8 22 24 16 21 24 31 36 41 45 44 45 44 47 46 45 42
29 29 27 25 24 24 26 26 19 19 18 17 14 14 9 6 3 3 2 2 4 4 5 4 3 7 5 4 4 5 3 4 3 6 3 2 6 9 20 24 13 12 17 21 28 34 39 44 46 50 50 49 47 45
31 29 27 28 26 25 21 27 22 20 24 14 4 4 3 2 7 4 6 6 7 8 4 5 7 5 5 5 3 3 3 6 8 1 1 5 7 6 14 19 21 12 8 14 22 28 30 32 44 52 48 44 46 52
30 29 30 28 23 14 17 27 21 15 11 4 3 10 1 4 5 6 6 8 12 16 20 14 3 4 6 5 3 2 4 6 3 1 2 2 3 3 9 11 16 17 9 8 10 19 25 30 32 33 38 41 42 45
26 28 27 15 8 16 25 24 14 10 6 4 3 4 7 9 14 15 17 17 18 18 14 2 4 6 3 4 3 4 6 3 1 1 3 5 13 8 8 12 14 13 8 10 7 12 18 23 29 34 37 32 31 39
25 22 13 22 23 21 20 13 8 8 6 6 8 7 10 8 9 8 12 15 13 16 6 3 2 2 4 2 3 3 1 2 2 4 6 15 8 6 12 14 15 10 9 6 6 7 11 17 23 26 26 30 29 23
26 20 30 28 19 16 15 7 5 7 6 6 10 18 24 25 19 17 16 15 14 5 4 5 6 5 2 3 1 5 5 2 3 4 8 3 6 13 16 15 7 9 11 7 7 9 12 9 17 18 17 18 28 29
34 34 28 20 12 14 8 9 5 7 9 12 10 14 16 22 23 19 21 17 9 3 9 3 2 3 4 10 9 7 6 4 9 8 2 2 6 11 16 14 8 3 4 4 7 6 11 7 12 16 20 20 23 28
32 18 15 11 8 6 4 6 8 7 11 14 20 25 19 17 17 20 22 18 11 7 4 2 7 7 8 7 22 22 6 6 6 6 6 12 13 12 14 18 9 8 8 4 4 11 14 5 10 15 17 17 18 25
18 12 5 7 8 4 4 6 8 9 8 8 14 15 13 12 18 17 14 8 5 3 5 6 5 7 13 27 24 18 5 2 4 8 11 14 18 16 14 15 9 12 16 8 2 9 10 7 11 15 14 14 16 22
8 7 8 4 4 7 6 6 8 9 11 8 11 15 7 8 8 10 13 20 7 7 8 2 9 13 12 22 24 15 15 4 8 10 8 14 16 17 16 14 9 6 13 10 3 7 6 9 14 15 13 17 23 21
9 12 6 4 4 5 8 10 8 12 8 10 10 12 5 5 8 10 12 10 6 4 2 6 1 15 22 25 20 13 11 14 15 6 11 13 11 14 25 28 22 16 14 6 8 5 3 8 17 13 11 17 21 23
10 5 4 5 5 5 5 5 4 4 5 10 11 4 4 4 8 10 4 3 2 5 5 6 13 13 20 25 17 7 17 18 13 3 7 14 10 14 14 15 14 10 4 6 5 6 1 5 13 5 9 13 14 19
9 5 5 5 7 5 4 2 3 5 5 6 6 5 4 6 12 6 2 3 4 0 6 10 14 20 21 22 19 9 9 11 7 4 13 7 7 4 12 14 15 16 14 12 7 13 10 5 3 9 9 13 15 17
5 7 5 6 5 3 3 2 1 1 2 3 4 4 2 6 3 4 3 5 10 6 7 12 15 20 21 23 20 16 14 7 4 34 18 16 8 10 22 24 17 10 16 14 17 9 13 12 5 7 12 16 17 16
2 8 10 6 5 5 3 3 4 4 4 4 3 3 2 2 2 2 1 6 6 7 10 13 14 13 14 17 15 19 12 14 23 13 12 11 17 13 13 10 10 11 13 12 8 7 10 9 12 13 11 12 12 14
3 5 7 10 5 5 4 2 3 5 4 5 2 3 1 3 1 2 1 9 11 12 14 13 13 14 12 15 18 17 17 24 21 1 19 11 3 8 11 13 14 18 18 15 13 10 10 7 13 14 13 10 13 13
9 6 8 9 9 9 4 4 5 6 5 6 4 4 2 2 2 3 3 11 15 13 13 13 18 19 22 25 26 24 19 14 21 20 9 19 20 15 13 14 17 20 19 19 17 16 13 11 12 10 7 11 10 9
8 9 11 8 8 10 12 12 8 11 9 15 6 5 4 6 8 6 10 14 16 17 14 13 16 21 26 26 22 21 17 12 5 5 7 11 8 9 10 5 16 9 15 16 13 12 11 16 12 12 11 12 15 12
8 18 9 7 7 8 7 16 8 15 21 19 10 8 9 11 11 12 14 15 15 14 10 9 12 14 17 21 23 22 18 17 15 15 10 9 8 10 12 12 13 13 16 15 14 13 13 14 13 11 12 12 11 10
6 13 7 9 8 9 12 14 14 17 20 19 15 9 11 12 14 6 6 9 12 12 8 7 7 12 16 18 18 16 17 19 18 17 12 9 12 13 14 11 12 12 12 12 11 9 7 5 4 9 7 7 8 8
12 17 10 6 4 5 10 10 12 11 13 12 10 13 14 13 12 11 14 11 6 4 6 8 8 12 15 17 20 20 19 21 21 26 27 29 29 25 19 12 12 11 9 7 7 8 7 7 7 7 7 7 7 7
7 9 9 6 5 9 12 12 8 4 7 9 11 17 14 9 3 8 11 17 11 6 6 8 9 10 12 14 18 19 21 22 21 19 17 17 17 16 16 16 14 12 11 10 10 9 9 9 7 7 8 7 7 7
Wind_Direction_850mb
349 350 349 351 354 355 356 354 351 356 5 15 26 41 78 105 108 96 102 48 328 274 306 306 318 301 298 301 300 306 317 320 306 311 311 334 300 329 327 91 143 164 206 205 216 234 249 324 195 135 100 55 20 22
348 348 347 352 354 355 356 355 356 6 20 27 46 40 101 107 105 101 125 189 233 250 305 351 3 338 339 333 307 300 297 287 337 312 330 308 324 332 335 41 15 186 274 273 216 264 286 5 64 75 61 44 12 20
346 347 346 352 353 353 359 357 360 11 15 33 53 56 112 114 97 71 40 42 45 313 310 8 359 8 8 342 325 288 282 331 312 330 304 315 336 326 355 34 295 329 344 298 275 233 329 27 31 38 26 18 14 30
345 346 346 351 351 354 1 0 2 14 19 40 56 78 81 104 104 73 47 31 35 27 329 4 8 23 25 39 26 318 278 312 313 337 345 347 344 357 340 297 335 332 322 303 259 339 347 351 3 8 8 15 20 33
344 343 345 349 349 354 3 2 2 14 20 27 46 65 69 6 340 329 18 14 31 351 302 281 314 14 24 27 32 41 43 24 27 48 16 19 357 340 327 309 5 1 351 357 333 331 312 302 336 357 4 2 0 1
342 342 345 347 347 347 358 0 360 3 1 359 22 32 52 28 352 341 349 293 342 336 322 306 291 287 324 336 339 4 35 37 52 51 24 0 359 357 345 23 359 2 4 10 339 339 330 336 342 353 353 353 351 342
340 343 344 345 346 338 340 352 355 354 340 329 329 324 335 350 340 326 314 312 320 319 280 289 283 265 302 230 330 3 34 41 52 54 22 346 340 6 5 7 356 358 359 1 7 13 0 4 351 359 1 351 348 345
339 343 340 343 343 333 330 335 343 346 342 326 309 305 306 316 320 297 307 316 306 307 266 275 265 239 336 325 323 344 353 19 31 37 2 358 337 354 29 351 357 2 360 9 10 22 21 22 18 14 19 20 22 17
339 340 339 344 348 346 334 334 337 339 340 330 316 308 304 296 317 307 311 304 297 254 280 249 284 356 170 156 27 27 24 38 358 19 19 344 342 40 337 342 358 4 9 3 13 16 23 24 23 29 36 30 27 14
337 335 337 348 356 353 346 342 342 340 339 325 321 315 278 302 315 332 7 348 295 268 248 248 251 287 222 179 145 121 81 61 29 7 336 33 324 321 353 354 4 8 10 13 14 13 15 21 26 29 32 33 32 28
333 329 334 339 338 340 346 347 342 340 339 334 313 276 303 316 344 348 308 281 231 258 215 241 219 282 225 297 116 161 144 80 89 3 344 333 305 355 4 6 4 19 31 35 35 33 34 32 26 29 32 29 28 25
327 324 329 325 317 313 320 339 328 329 324 312 294 301 313 347 316 283 332 255 225 300 234 235 273 234 221 216 207 179 124 192 108 158 108 286 282 337 358 359 3 6 20 36 41 43 40 34 36 36 34 31 28 24
321 324 324 317 313 310 299 324 320 320 322 323 330 317 331 315 22 64 322 299 311 291 265 287 301 187 172 196 125 186 173 68 137 116 236 256 326 340 351 354 353 329 344 16 28 33 34 34 33 32 30 30 30 33
320 325 321 316 309 300 301 317 313 310 316 309 321 324 2 295 244 212 241 267 290 273 311 308 182 213 177 179 155 162 84 175 126 68 268 258 307 350 6 355 348 342 309 326 1 23 25 25 23 20 20 21 26 29
325 329 331 336 316 298 305 307 290 278 278 264 227 260 231 263 270 276 284 290 313 304 316 220 162 203 154 149 64 128 164 92 210 189 247 296 310 297 341 355 352 338 289 258 300 342 359 9 15 12 6 5 11 26
333 336 331 321 312 304 309 306 247 258 246 228 236 251 246 272 286 282 284 293 316 325 302 281 224 160 90 348 197 105 50 197 184 230 276 312 324 275 317 328 347 355 333 284 284 289 320 345 349 356 0 4 7 5
335 333 319 314 312 303 308 248 248 239 245 232 247 255 258 276 266 273 276 287 309 310 344 313 308 10 124 246 120 181 201 177 170 302 323 350 334 327 320 309 309 341 353 4 9 11 359 354 11 8 11 2 7 11
328 324 312 303 296 308 286 207 242 249 250 248 255 281 268 273 282 295 310 300 311 62 306 286 160 238 357 3 357 342 306 322 342 316 267 215 332 326 345 337 241 253 338 358 15 354 3 29 30 18 20 14 9 14
325 331 314 285 277 297 239 223 220 263 253 274 277 287 284 289 301 310 294 275 268 271 236 353 38 5 62 322 290 313 287 2 39 37 347 334 328 327 350 339 263 215 217 217 352 358 5 90 45 32 28 26 26 18
327 319 308 292 280 237 241 232 223 254 261 273 286 295 296 303 318 340 360 360 323 147 89 79 239 184 174 235 300 300 260 312 324 339 352 10 359 352 348 345 315 226 215 214 135 18 7 74 54 31 26 37 34 26
308 309 313 283 267 223 253 246 247 256 284 277 290 328 326 344 2 22 4 353 53 40 68 207 277 280 282 293 300 264 230 210 288 303 339 356 1 357 356 347 327 258 185 153 87 37 25 64 41 21 41 51 35 32
304 313 292 266 253 250 252 237 252 293 278 303 327 343 20 16 17 7 354 35 48 28 45 144 278 322 322 332 324 250 197 265 267 286 356 6 34 63 70 65 66 106 115 99 312 250 148 70 27 34 58 45 44 55
323 294 248 231 249 251 259 290 280 311 309 324 339 21 17 11 1 3 74 58 39 26 124 351 334 331 341 346 356 211 225 262 249 266 37 43 65 102 76 59 54 56 52 1 54 148 1 61 39 88 80 61 64 57
310 233 227 226 222 269 294 262 289 329 335 351 357 329 338 341 354 34 55 348 348 108 348 356 360 358 354 351 349 324 278 262 256 25 28 329 147 67 65 54 49 47 52 42 39 149 148 226 151 145 81 81 63 49
280 214 203 231 218 248 257 266 2 315 281 275 284 254 14 356 357 11 3 350 11 1 14 5 357 359 355 350 340 323 307 289 234 298 275 246 196 115 81 53 30 30 41 47 62 102 95 97 84 111 80 65 49 45
167 205 186 199 172 209 207 247 218 237 238 252 261 37 31 345 301 10 349 347 346 351 356 351 340 346 351 349 346 340 304 285 306 302 290 206 129 88 352 44 102 49 38 53 74 95 110 117 122 121 112 83 51 61
275 227 214 214 207 203 228 213 232 240 255 240 211 134 189 279 260 124 53 354 348 320 313 326 342 354 15 23 2 345 308 300 301 193 121 92 266 93 69 100 66 56 50 48 60 110 98 103 109 114 109 67 98 74
240 230 206 188 203 219 227 211 215 223 231 205 168 220 244 279 76 119 16 10 13 16 11 36 79 63 46 28 19 21 33 64 118 119 123 116 90 58 100 104 73 63 59 60 62 87 98 113 120 112 114 111 97 72
226 216 196 213 199 211 217 211 224 213 203 184 199 182 156 127 119 100 75 67 59 54 60 90 81 49 40 40 48 51 70 95 56 34 122 116 96 78 33 21 325 130 62 57 63 86 100 119 105 104 101 97 94 92
236 197 207 202 201 222 225 206 227 227 205 199 183 141 131 128 119 116 95 84 82 79 87 101 82 53 56 59 54 49 62 57 56 66 73 106 117 95 83 47 87 89 68 81 80 110 110 113 99 90 99 86 76 71
240 191 222 223 239 224 237 237 221 198 195 201 202 174 147 141 127 149 142 103 77 72 105 106 86 76 65 61 54 47 40 31 42 61 81 125 141 132 113 68 88 104 87 108 99 109 129 129 97 114 103 89 68 61
209 205 203 225 232 251 163 171 180 193 195 188 188 169 157 154 194 210 192 166 127 132 127 109 91 86 69 47 30 32 62 81 82 89 88 88 95 107 111 102 104 107 106 120 93 90 101 101 110 101 90 68 63 57
237 238 219 206 174 197 192 172 183 179 202 203 200 197 185 170 133 216 205 193 190 197 156 136 131 108 78 46 43 68 82 88 91 93 98 99 96 97 100 102 104 101 101 105 107 100 90 89 91 93 79 57 47 27